This is the latest recevied weather packets stored in our database for station/object OK3MS-5. If no packets are shown the sender has not sent any weather packets the latest 10 day(s).
| Time | Temp. | Humidity | Pressure | Rain* | Wind** | Luminosity | Snow |
|---|---|---|---|---|---|---|---|
| 1777342504 | 3.89° C | 69% | 1021 hPa | 0 mm | - | 0 W/m² | - |
| 1777342207 | 3.33° C | 70% | 1021.1 hPa | 0 mm | - | 0 W/m² | - |
| 1777341904 | 3.33° C | 72% | 1021.1 hPa | 0 mm | - | 0 W/m² | - |
| 1777341604 | 3.33° C | 71% | 1021.2 hPa | 0 mm | - | 0 W/m² | - |
| 1777341305 | 3.89° C | 72% | 1021.1 hPa | 0 mm | - | 0 W/m² | - |
| 1777341002 | 3.89° C | 72% | 1021.1 hPa | 0 mm | - | 0 W/m² | - |
| 1777340703 | 3.89° C | 71% | 1021.2 hPa | 0 mm | - | 0 W/m² | - |
| 1777340408 | 3.89° C | 69% | 1021.1 hPa | 0 mm | - | 0 W/m² | - |
| 1777340109 | 3.89° C | 68% | 1021.1 hPa | 0 mm | - | 0 W/m² | - |
| 1777339808 | 3.89° C | 69% | 1021.1 hPa | 0 mm | - | 0 W/m² | - |
| 1777339506 | 3.89° C | 70% | 1021.1 hPa | 0 mm | - | 0 W/m² | - |
| 1777339203 | 3.89° C | 70% | 1021.1 hPa | 0 mm | - | 0 W/m² | - |
| 1777338905 | 3.89° C | 69% | 1021 hPa | 0 mm | - | 0 W/m² | - |
| 1777338603 | 4.44° C | 67% | 1021.1 hPa | 0 mm | - | 0 W/m² | - |
| 1777338307 | 4.44° C | 67% | 1021 hPa | 0 mm | - | 0 W/m² | - |
| 1777338004 | 4.44° C | 68% | 1021 hPa | 0 mm | - | 0 W/m² | - |
| 1777337713 | 4.44° C | 67% | 1021 hPa | 0 mm | - | 0 W/m² | - |
| 1777337404 | 4.44° C | 68% | 1021 hPa | 0 mm | - | 0 W/m² | - |
| 1777337109 | 4.44° C | 69% | 1021.1 hPa | 0 mm | - | 0 W/m² | - |
| 1777336803 | 4.44° C | 70% | 1020.8 hPa | 0 mm | - | 0 W/m² | - |
| 1777336503 | 5° C | 69% | 1020.9 hPa | 0 mm | - | 0 W/m² | - |
| 1777336209 | 4.44° C | 67% | 1020.9 hPa | 0 mm | - | 0 W/m² | - |
| 1777335905 | 4.44° C | 70% | 1020.9 hPa | 0 mm | - | 0 W/m² | - |
| 1777335610 | 5° C | 69% | 1020.9 hPa | 0 mm | - | 0 W/m² | - |
| 1777335304 | 5° C | 70% | 1020.9 hPa | 0 mm | - | 0 W/m² | - |
* Rain latest hour (hover to see other rain measurements)
** Current wind speed in m/s (hover to see current wind gust speed)